Punta Gorda, FL

10:11 AM EST on December 12, 2019 (GMT -0500)
Charlotte County

Weather History for KPGD - September, 2019

Change the Weather History Date:

Tuesday, September 10, 2019

  Actual Average Record
Temperature  
Mean Temperature 84 °F -  
Max Temperature 95 °F 87 °F 95 °F (2019)
Min Temperature 75 °F 72 °F 72 °F (2003)
Cooling Degree Days 19    
Growing Degree Days 34 (Base 50)    
Moisture  
Dew Point 74 °F    
Average Humidity 77    
Maximum Humidity 100    
Minimum Humidity 44    
Precipitation  
Precipitation 0.00 in - - ()
Sea Level Pressure  
Sea Level Pressure 30.14 in    
Wind  
Wind Speed 6 mph (ENE)    
Max Wind Speed 14 mph    
Max Gust Speed 20 mph    
Visibility 10 miles    
Events      
Averages and records for this station are not official NWS values.
T = Trace of Precipitation, MM = Missing Value Source: NWS Daily Summary

Daily Weather History Graph

Daily Weather History Graph

Search for Another Location

Airport or City:

Astronomy

Sep. 10, 2019 Rise Set
Actual Time 7:11 AM EDT 7:38 PM EDT
Civil Twilight 6:47 AM EDT 8:01 PM EDT
Nautical Twilight 6:20 AM EDT 8:28 PM EDT
Astronomical Twilight 5:52 AM EDT 8:56 PM EDT
Moon 5:52 PM EDT (9/10) 3:59 AM EDT (9/10)
Length of Visible Light 13h 13m
Length of Day
12h 27m
Waxing Gibbous, 89% of the Moon is Illuminated
Sep 10
Waxing Gibbous
Sep 14
Full
Sep 21
Last Quarter
Sep 28
New
Oct 5
First Quarter

Hourly Weather History & Observations

Time (EDT) Temp. Heat Index Dew Point Humidity Pressure Visibility Wind Dir Wind Speed Gust Speed Precip Events Conditions
12:53 AM 78.1 °F - 77.0 °F 96% 30.13 in 10.0 mi Calm Calm - N/A   Clear
1:53 AM 77.0 °F - 77.0 °F 100% 30.12 in 10.0 mi NE 3.5 mph - N/A   Clear
2:53 AM 77.0 °F - 77.0 °F 100% 30.11 in 10.0 mi ENE 3.5 mph - N/A   Clear
3:53 AM 75.9 °F - 75.9 °F 100% 30.11 in 10.0 mi NE 5.8 mph - N/A   Clear
4:53 AM 75.9 °F - 75.9 °F 100% 30.11 in 8.0 mi East 5.8 mph - N/A   Clear
5:53 AM 75.9 °F - 75.9 °F 100% 30.13 in 8.0 mi ENE 5.8 mph - N/A   Clear
6:53 AM 75.9 °F - 75.9 °F 100% 30.14 in 9.0 mi NE 5.8 mph - N/A   Partly Cloudy
7:53 AM 77.0 °F - 77.0 °F 100% 30.16 in 10.0 mi ENE 4.6 mph - N/A   Partly Cloudy
8:53 AM 80.1 °F 86.4 °F 78.1 °F 94% 30.19 in 10.0 mi East 6.9 mph - N/A   Clear
9:53 AM 84.0 °F 93.7 °F 77.0 °F 79% 30.19 in 10.0 mi East 8.1 mph - N/A   Partly Cloudy
10:53 AM 87.1 °F 94.5 °F 73.0 °F 63% 30.19 in 10.0 mi East 10.4 mph - N/A   Partly Cloudy
11:53 AM 90.0 °F 96.4 °F 71.1 °F 54% 30.17 in 10.0 mi ENE 13.8 mph 19.6 mph N/A   Partly Cloudy
12:53 PM 91.0 °F 95.6 °F 69.1 °F 48% 30.17 in 10.0 mi East 12.7 mph - N/A   Clear
1:53 PM 93.0 °F 97.9 °F 69.1 °F 45% 30.15 in 10.0 mi East 10.4 mph - N/A   Clear
2:53 PM 93.9 °F 99.1 °F 69.1 °F 44% 30.12 in 10.0 mi East 9.2 mph - N/A   Clear
3:53 PM 93.0 °F 97.9 °F 69.1 °F 45% 30.12 in 10.0 mi ENE 12.7 mph 17.3 mph N/A   Partly Cloudy
4:53 PM 89.1 °F 94.1 °F 70.0 °F 53% 30.10 in 10.0 mi East 9.2 mph - N/A   Scattered Clouds
5:53 PM 90.0 °F 96.4 °F 71.1 °F 54% 30.10 in 10.0 mi East 8.1 mph - N/A   Scattered Clouds
6:53 PM 86.0 °F 92.2 °F 72.0 °F 63% 30.10 in 10.0 mi East 9.2 mph - N/A   Partly Cloudy
7:53 PM 84.0 °F 89.6 °F 72.0 °F 67% 30.11 in 10.0 mi East 9.2 mph - N/A   Clear
8:53 PM 82.0 °F 86.7 °F 72.0 °F 71% 30.12 in 10.0 mi East 8.1 mph - N/A   Clear
9:53 PM 80.1 °F 84.2 °F 73.0 °F 79% 30.14 in 10.0 mi ENE 6.9 mph - N/A   Clear
10:53 PM 78.1 °F - 73.9 °F 87% 30.15 in 10.0 mi ENE 8.1 mph - N/A   Clear
11:53 PM 77.0 °F - 75.0 °F 94% 30.15 in 10.0 mi ENE 6.9 mph - N/A   Clear